Limon, CO

1:20 PM MST on January 23, 2017 (GMT -0700)
Limon Municipal

Weather History for KLIC - August, 2013

Change the Weather History Date:

Saturday, August 17, 2013

  Actual Average Record
Temperature  
Mean Temperature 67 °F -  
Max Temperature 85 °F - 94 °F (2014)
Min Temperature 49 °F - 45 °F (2012)
Degree Days  
Heating Degree Days 0    
Month to date heating degree days 13  
Cooling Degree Days 2    
Month to date cooling degree days 66  
Growing Degree Days 18 (Base 50)    
Moisture  
Dew Point 56 °F    
Average Humidity 69    
Maximum Humidity 100    
Minimum Humidity 37    
Precipitation  
Precipitation 0.00 in - 1.24 in (2008)
Month to date precipitation 2.72  
Year to date precipitation 11.83  
Sea Level Pressure  
Sea Level Pressure 29.97 in    
Wind  
Wind Speed 6 mph (SE)    
Max Wind Speed 21 mph    
Max Gust Speed 24 mph    
Visibility 10 miles    
Events      
T = Trace of Precipitation, MM = Missing Value Source: NWS Daily Summary

Daily Weather History Graph

Daily Weather History Graph

Search for Another Location

Airport or City:

Trip Planner

Search our weather history database for the weather conditions in past years. The results will help you decide how hot, cold, wet, or windy it might be!

Date:

Astronomy

Aug. 17, 2013 Rise Set
Actual Time 6:09 AM MDT 7:46 PM MDT
Civil Twilight 5:41 AM MDT 8:15 PM MDT
Nautical Twilight 5:06 AM MDT 8:49 PM MDT
Astronomical Twilight 4:30 AM MDT 9:25 PM MDT
Moon 5:03 PM MDT (8/17) 2:16 AM MDT (8/17)
Length of Visible Light 14h 34m
Length of Day
13h 37m
Waxing Gibbous, 85% of the Moon is Illuminated
Aug 17
Waxing Gibbous
Aug 20
Full
Aug 28
Last Quarter
Sep 5
New
Sep 12
First Quarter

Hourly Weather History & Observations

Time (MDT) Temp. Heat Index Dew Point Humidity Pressure Visibility Wind Dir Wind Speed Gust Speed Precip Events Conditions
12:55 AM 55.9 °F - 55.0 °F 97% 30.03 in 10.0 mi NNE 3.5 mph - N/A   Clear
1:55 AM 55.0 °F - 54.0 °F 96% 30.01 in 10.0 mi Calm Calm - N/A   Clear
2:55 AM 53.1 °F - 52.0 °F 96% 30.00 in 10.0 mi Calm Calm - N/A   Clear
3:55 AM 52.0 °F - 51.1 °F 97% 29.99 in 9.0 mi North 5.8 mph - N/A   Clear
4:55 AM 52.0 °F - 51.1 °F 97% 29.99 in 8.0 mi Calm Calm - N/A   Clear
5:55 AM 51.1 °F - 50.0 °F 96% 30.00 in 8.0 mi Calm Calm - N/A   Clear
6:55 AM 52.0 °F - 51.1 °F 97% 30.01 in 5.0 mi Calm Calm - N/A   Clear
7:55 AM 62.1 °F - 57.0 °F 84% 30.00 in 10.0 mi Calm Calm - N/A   Clear
8:55 AM 71.1 °F - 57.0 °F 61% 29.99 in 10.0 mi Calm Calm - N/A   Clear
9:55 AM 80.1 °F 79.9 °F 53.1 °F 39% 29.97 in 10.0 mi Calm Calm - N/A   Clear
10:55 AM 81.0 °F 82.2 °F 63.0 °F 54% 29.97 in 10.0 mi SE 10.4 mph - N/A   Clear
11:55 AM 81.0 °F 81.6 °F 60.1 °F 49% 29.98 in 10.0 mi SE 13.8 mph - N/A   Clear
12:55 PM 82.0 °F 81.7 °F 57.0 °F 42% 29.97 in 10.0 mi SE 12.7 mph - N/A   Clear
1:55 PM 84.0 °F 83.3 °F 57.0 °F 40% 29.95 in 10.0 mi SSE 13.8 mph 19.6 mph N/A   Clear
2:55 PM 84.9 °F 83.7 °F 55.9 °F 37% 29.94 in 10.0 mi SE 13.8 mph 23.0 mph N/A   Clear
3:55 PM 84.0 °F 82.9 °F 55.0 °F 37% 29.93 in 10.0 mi SE 16.1 mph - N/A   Clear
4:55 PM 82.0 °F 81.2 °F 53.1 °F 37% 29.93 in 10.0 mi SE 12.7 mph - N/A   Clear
5:55 PM 81.0 °F 80.7 °F 55.0 °F 41% 29.94 in 10.0 mi SE 20.7 mph 24.2 mph N/A   Clear
6:55 PM 77.0 °F - 55.9 °F 48% 29.96 in 10.0 mi SE 12.7 mph - N/A   Clear
7:55 PM 73.0 °F - 57.0 °F 57% 29.94 in 10.0 mi SSE 10.4 mph - N/A   Clear
8:55 PM 68.0 °F - 59.0 °F 73% 29.96 in 10.0 mi SE 10.4 mph - N/A   Clear
9:55 PM 66.9 °F - 61.0 °F 81% 29.94 in 10.0 mi SSE 11.5 mph - N/A   Clear
10:55 PM 66.0 °F - 63.0 °F 90% 29.95 in 10.0 mi SSE 15.0 mph - N/A   Mostly Cloudy
11:55 PM 64.9 °F - 64.0 °F 97% 29.96 in 8.0 mi SSE 16.1 mph 19.6 mph N/A   Overcast